Doylestown, PA

6:13 AM EDT on August 30, 2016 (GMT -0400)
Doylestown

Weather History for KDYL - August, 2013

Change the Weather History Date:

Monday, August 26, 2013

  Actual Average (KTTN) Record (KTTN)
Temperature  
Mean Temperature 72 °F 73 °F  
Max Temperature 84 °F 82 °F 99 °F (1948)
Min Temperature 62 °F 63 °F 53 °F (1944)
Degree Days  
Heating Degree Days 0 0  
Month to date heating degree days 0  
Since 1 June heating degree days 24  
Since 1 July heating degree days 0  
Cooling Degree Days 7 8  
Month to date cooling degree days 243  
Year to date cooling degree days 820  
Since 1 June cooling degree days 763  
Growing Degree Days 22 (Base 50)    
Moisture  
Dew Point 61 °F    
Average Humidity 69    
Maximum Humidity 87    
Minimum Humidity 54    
Precipitation  
Precipitation 0.03 in 0.11 in 2.10 in (1908)
Month to date precipitation 3.56  
Year to date precipitation 30.44  
Sea Level Pressure  
Sea Level Pressure 30.10 in    
Wind  
Wind Speed 4 mph (SW)    
Max Wind Speed 9 mph    
Max Gust Speed 17 mph    
Visibility 10 miles    
Events Rain    
T = Trace of Precipitation, MM = Missing Value Source: NWS Daily Summary

Daily Weather History Graph

Daily Weather History Graph

Search for Another Location

Airport or City:

Trip Planner

Search our weather history database for the weather conditions in past years. The results will help you decide how hot, cold, wet, or windy it might be!

Date:

Astronomy

Aug. 26, 2013 Rise Set
Actual Time 6:22 AM EDT 7:41 PM EDT
Civil Twilight 5:54 AM EDT 8:09 PM EDT
Nautical Twilight 5:20 AM EDT 8:43 PM EDT
Astronomical Twilight 4:44 AM EDT 9:18 PM EDT
Moon 10:49 PM EDT (8/26) 12:22 PM EDT (8/26)
Length of Visible Light 14h 15m
Length of Day
13h 18m
Waning Gibbous, 67% of the Moon is Illuminated
Aug 26
Waning Gibbous
Aug 28
Last Quarter
Sep 5
New
Sep 12
First Quarter
Sep 19
Full

Hourly Weather History & Observations

Time (EDT) Temp. Heat Index Dew Point Humidity Pressure Visibility Wind Dir Wind Speed Gust Speed Precip Events Conditions
12:54 AM 63.0 °F - 55.9 °F 78% 30.25 in 10.0 mi Calm Calm - N/A   Clear
1:54 AM 62.1 °F - 55.9 °F 80% 30.24 in 10.0 mi Calm Calm - N/A   Clear
2:54 AM 62.1 °F - 57.0 °F 84% 30.23 in 10.0 mi SSW 4.6 mph - N/A   Clear
3:54 AM 64.0 °F - 55.0 °F 73% 30.20 in 10.0 mi SSW 4.6 mph - N/A   Clear
4:54 AM 63.0 °F - 55.0 °F 75% 30.20 in 10.0 mi Calm Calm - N/A   Clear
5:54 AM 63.0 °F - 55.9 °F 78% 30.20 in 10.0 mi SW 5.8 mph - N/A   Clear
6:54 AM 63.0 °F - 55.9 °F 78% 30.20 in 10.0 mi SW 5.8 mph - N/A   Clear
7:54 AM 64.0 °F - 55.9 °F 75% 30.19 in 10.0 mi SW 5.8 mph - N/A   Clear
8:54 AM 64.9 °F - 57.0 °F 75% 30.19 in 10.0 mi WSW 6.9 mph - N/A   Partly Cloudy
9:54 AM 70.0 °F - 59.0 °F 68% 30.18 in 10.0 mi Variable 4.6 mph - N/A   Clear
10:54 AM 73.9 °F - 61.0 °F 64% 30.17 in 10.0 mi Variable 6.9 mph - N/A   Mostly Cloudy
11:54 AM 75.9 °F - 62.1 °F 62% 30.13 in 10.0 mi WSW 9.2 mph - N/A   Mostly Cloudy
12:54 PM 77.0 °F - 62.1 °F 60% 30.11 in 10.0 mi WSW 4.6 mph - N/A   Overcast
1:54 PM 81.0 °F 82.2 °F 63.0 °F 54% 30.08 in 10.0 mi Variable 5.8 mph 17.3 mph N/A   Scattered Clouds
2:54 PM 80.1 °F 81.7 °F 64.0 °F 58% 30.04 in 10.0 mi SW 8.1 mph - N/A   Overcast
3:54 PM 82.0 °F 83.8 °F 64.9 °F 56% 30.01 in 10.0 mi West 5.8 mph - N/A   Clear
4:54 PM 82.0 °F 83.4 °F 64.0 °F 54% 29.99 in 10.0 mi WSW 8.1 mph 17.3 mph N/A   Clear
5:54 PM 81.0 °F 82.5 °F 64.0 °F 56% 29.98 in 10.0 mi SW 6.9 mph - N/A   Clear
6:54 PM 79.0 °F - 64.9 °F 62% 29.97 in 10.0 mi SW 5.8 mph - N/A   Clear
7:54 PM 77.0 °F - 66.0 °F 69% 29.97 in 10.0 mi SSW 4.6 mph - N/A   Clear
8:54 PM 75.9 °F - 66.0 °F 71% 29.98 in 10.0 mi South 3.5 mph - N/A   Clear
9:54 PM 75.0 °F - 64.9 °F 71% 29.97 in 10.0 mi Variable 6.9 mph - N/A   Clear
10:54 PM 73.9 °F - 66.0 °F 76% 29.95 in 10.0 mi SSW 5.8 mph - 0.00 in Rain Light Rain
11:54 PM 72.0 °F - 68.0 °F 87% 29.94 in 10.0 mi SW 3.5 mph - 0.03 in Rain Light Rain